Location: Libas
(9.8833°N, 125.9833°E)
Time: 21:29:22
(UTC+00:00)

Cosmos 1606 Rocket - Pass Details

Date: 27 October 2020
Orbit: 604 x 631 km, 82.5° (Epoch: 25 November)

Event Time Altitude Azimuth Distance (km) Brightness Sun altitude
Rises 20:53:17 0° 349° (N) 2,911 6.8 -8.6°
Reaches altitude 10° 20:55:33 10° 345° (NNW) 2,003 5.9 -8.1°
Maximum altitude 20:59:54 57° 267° (W) 741 3.7 -7.0°
Drops below altitude 10° 21:04:15 10° 188° (S) 1,996 6.2 -6.0°
Sets 21:06:30 0° 184° (S) 2,899 7.1 -5.5°
